[[{"header":{"parameterUnit":"m.s-1","parameterCategory":1,"la1":30.2991,"la2":30.254,"lo1":-89.0895,"lo2":-89.0444,"dy":0.0017,"dx":0.0017,"nx":28,"ny":28,"refTime":"2025-03-20T03:00:00:Z","depth":0,"parameterNumber":2,"parameterNumberName":"U-component_of_WINDS"},"data":[0,0,0,0,0,0,0,0,0,0,0,0,0,0,0,0,0,0,0,0,0,0,0,0,0,0,0,0,0,0,0,0,0,0,0,0,0,0,0,0,0,0,0,0,0,0,0,0,0,0,0,0,0,0,0,0,0,0,-0.8428,-0.8428,0,-0.8451,-0.8452,-0.8452,-0.8356,-0.8353,-0.835,-0.8347,-0.8375,-0.8379,-0.8382,0,0,0,0,0,0,0,0,0,0,0,0,0,-0.8302,-0.8304,-0.8428,-0.8428,-0.8428,-0.8451,-0.8452,-0.8452,-0.8356,-0.8353,-0.8349,-0.8346,-0.8374,-0.8378,-0.8382,0,0,0,0,0,0,0,0,0,0,0,0,0,-0.8344,-0.8305,-0.8428,-0.8383,-0.8379,-0.8451,-0.8452,-0.8452,-0.8357,-0.8353,-0.8348,-0.8345,-0.8373,-0.8378,-0.8383,-0.85,0,0,-0.8398,-0.8401,0,0,0,0,0,0,0,0,-0.8342,-0.8349,-0.8389,-0.8386,-0.8382,-0.8396,-0.8417,-0.8468,-0.8358,-0.8366,-0.8347,-0.8342,-0.8386,-0.839,-0.8404,-0.8501,-0.8502,-0.8399,-0.8402,-0.8404,-0.8406,0,0,0,0,0,0,0,-0.8339,-0.8347,-0.8437,-0.839,-0.8386,-0.8363,-0.8364,-0.8426,-0.84,-0.8365,-0.8358,-0.8362,-0.8383,-0.8399,-0.8404,-0.8502,-0.8399,-0.8403,-0.8406,-0.8408,-0.8694,-0.8699,0,0,0,0,0,0,-0.8341,-0.8345,-0.8436,-0.8438,-0.8351,-0.8368,-0.837,-0.8396,-0.8399,-0.8395,-0.8365,-0.8357,-0.8392,-0.8398,-0.8404,-0.854,-0.8404,-0.8409,-0.8412,-0.869,-0.8695,-0.87,0,0,0,0,0,0,-0.8339,-0.8351,-0.8435,-0.839,-0.8399,-0.8375,-0.8405,-0.8399,-0.8414,-0.8399,-0.8394,-0.8386,-0.8389,-0.8397,-0.8476,-0.8539,-0.8411,-0.8416,-0.8685,-0.8692,-0.8698,-0.8813,0,0,0,0,0,0,-0.8336,-0.835,-0.8394,-0.8391,-0.8401,-0.8507,-0.8409,-0.8402,-0.8423,-0.8412,-0.8417,-0.8414,-0.8386,-0.8469,-0.8481,-0.8544,-0.842,-0.8679,-0.8688,-0.8696,-0.8803,-0.8823,-0.8839,0,0,0,0,0,-0.8332,-0.8427,-0.8397,-0.8408,-0.8456,-0.851,-0.8516,-0.8482,-0.8429,-0.8472,-0.8462,-0.8414,-0.853,-0.8478,-0.849,-0.8556,-0.8675,-0.8685,-0.8695,-0.8795,-0.8819,-0.8839,0,0,0,0,0,0,-0.844,-0.8426,-0.8392,-0.8489,-0.8502,-0.8494,-0.8549,-0.8508,-0.8537,-0.8526,-0.8483,-0.8485,-0.8571,-0.8571,-0.8513,-0.8668,-0.8593,-0.8607,-0.8665,-0.8687,-0.8705,-0.8704,-0.8424,0,0,0,0,0,-0.8475,-0.8519,-0.8505,-0.8592,-0.8599,-0.8573,-0.8596,-0.8568,-0.8579,-0.8584,-0.858,-0.8594,-0.8633,-0.866,-0.8696,-0.8802,-0.8802,-0.8854,-0.8872,-0.8887,-0.8899,-0.8954,-0.8977,-0.8734,-0.8734,-0.8734,0,0,-0.8548,-0.8545,-0.8577,-0.8613,-0.862,-0.8667,-0.8578,-0.8633,-0.8668,-0.8593,-0.8666,-0.8664,-0.8676,-0.8769,-0.881,-0.8772,-0.8965,-0.89,-0.8912,-0.8916,-0.8967,-0.899,-0.901,-0.8741,-0.874,-0.8738,0,0,-0.8705,-0.8708,-0.878,-0.8787,-0.8797,-0.8778,-0.8795,-0.8794,-0.8788,-0.8861,-0.8805,-0.8846,-0.8915,-0.8926,-0.894,-0.9099,-0.9055,-0.9111,-0.9206,-0.926,-0.9279,-0.9296,-0.9352,-0.9373,-0.9124,-0.9124,-0.9124,0,-0.8795,-0.8864,-0.8822,-0.888,-0.8897,-0.8829,-0.8902,-0.8911,-0.8933,-0.8947,-0.8903,-0.8987,-0.8991,-0.9084,-0.9123,-0.9137,-0.9155,-0.9111,-0.928,-0.9296,-0.9311,-0.9364,-0.9385,-0.9131,-0.913,-0.9129,-0.9128,0,-0.8973,-0.9022,-0.9079,-0.9099,-0.9123,-0.9188,-0.9156,-0.9185,-0.9155,-0.9141,-0.9215,-0.9216,-0.925,-0.927,-0.9242,-0.936,-0.9335,-0.9287,-0.9211,-0.9342,-0.9391,-0.9411,-0.914,-0.9138,-0.9136,-0.9134,0,0,-0.9202,-0.9196,-0.9217,-0.9225,-0.9229,-0.9266,-0.9328,-0.9359,-0.9384,-0.9401,-0.9451,-0.951,-0.9464,-0.9481,-0.9452,-0.95,-0.9624,-0.9445,-0.9444,-0.9478,-0.9753,-0.979,-0.9814,-0.9594,-0.9598,-0.9601,-0.9752,0,-0.9355,-0.9459,-0.9422,-0.9528,-0.9572,-0.9506,-0.9559,-0.9568,-0.9556,-0.9592,-0.9579,-0.9621,-0.9558,-0.9567,-0.9611,-0.96,-0.9679,-0.9588,-0.9641,-0.9644,-0.964,-0.9839,-0.9879,-1.0021,-0.9771,-0.9774,-0.9776,0,-0.9549,-0.9571,-0.9681,-0.9675,-0.9692,-0.9741,-0.9766,-0.98,-0.9808,-0.9796,-0.9813,-0.9774,-0.9834,-0.9757,-0.9839,-0.9778,-0.9797,-0.9795,-0.9799,-0.9803,-0.9718,-0.9849,-1.0066,-1.0087,-0.9806,-0.9804,-0.9801,0,-0.9704,-0.9761,-0.9833,-0.9842,-0.9838,-0.9873,-0.9873,-0.9877,-0.9897,-0.9919,-0.9932,-0.9961,-0.9977,-1.0001,-0.997,-0.9917,-1.0056,-0.9977,-1.0048,-1.0049,-1.0081,-1.008,-1.0304,-1.0094,-1.0093,-1.0093,-1.0092,0,-0.9879,-0.9949,-0.9902,-0.9947,-1.0023,-0.998,-1.0056,-1.0049,-1.0053,-1.0095,-1.004,-1.0082,-1.0039,-1.0076,-1.0052,-1.0123,-1.0131,-1.0123,-1.0116,-1.0128,-1.0129,-1.014,-1.013,-1.0098,-1.0097,-1.0096,-1.0095,0,-1.0066,-1.0037,-1.0112,-1.0101,-1.0099,-1.0156,-1.0147,-1.0188,-1.017,-1.0225,-1.0235,-1.0209,-1.025,-1.0221,-1.0262,-1.0246,-1.0339,-1.0318,-1.0336,-1.033,-1.0402,-1.0396,-1.0642,-1.0672,-1.0443,-1.0445,-1.0447,0,-1.018,-1.0231,-1.0225,-1.0249,-1.0252,-1.0291,-1.031,-1.027,-1.0293,-1.0304,-1.0344,-1.0379,-1.0405,-1.0473,-1.0459,-1.0489,-1.0469,-1.0553,-1.0473,-1.0483,-1.0469,-1.0467,-1.0471,-1.0569,-1.0572,-1.0574,-1.0576,0,-1.0385,-1.0368,-1.0398,-1.0423,-1.0447,-1.0465,-1.0479,-1.0502,-1.046,-1.0489,-1.0528,-1.0549,-1.0589,-1.0625,-1.0649,-1.065,-1.0607,-1.0601,-1.0619,-1.0632,-1.064,-1.0636,-1.038,-1.0596,-1.0594,-1.0592,-1.0591,-1.059,-1.0538,-1.058,-1.0582,-1.0617,-1.0622,-1.0636,-1.0673,-1.066,-1.0692,-1.072,-1.0694,-1.0742,-1.0747,-1.0775,-1.0781,-1.0817,-1.0783,-1.0809,-1.0816,-1.0823,-1.0833,-1.0633,-1.0822,-1.0821,-1.0821,-1.082,-1.082,0,-1.074,-1.0737,-1.077,-1.0789,-1.0817,-1.0771,-1.0783,-1.0809,-1.0851,-1.0859,-1.0885,-1.093,-1.0964,-1.0951,-1.098,-1.1012,-1.0993,-1.1022,-1.1019,-1.1019,-1.0862,-1.0843,-1.1036,-1.1036,-1.1036,-1.1036,-1.1036,-1.1036,-1.0849,-1.0917,-1.0899,-1.097,-1.0966,-1.1011,-1.1022,-1.1034,-1.1039,-1.1092,-1.1119,-1.1109,-1.1108,-1.1137,-1.1166,-1.1161,-1.1174,-1.121,-1.1199,-1.1052,-1.1031,-1.101,-1.0992,-1.1214,-1.1214,-1.1352,-1.1354,-1.1355]},{"header":{"parameterUnit":"m.s-1","parameterCategory":1,"la1":30.2991,"la2":30.254,"lo1":-89.0895,"lo2":-89.0444,"dy":0.0017,"dx":0.0017,"nx":28,"ny":28,"refTime":"2025-03-20T03:00:00:Z","depth":0,"parameterNumber":3,"parameterNumberName":"V-component_of_WINDS"},"data":[0,0,0,0,0,0,0,0,0,0,0,0,0,0,0,0,0,0,0,0,0,0,0,0,0,0,0,0,0,0,0,0,0,0,0,0,0,0,0,0,0,0,0,0,0,0,0,0,0,0,0,0,0,0,0,0,0,0,-3.3334,-3.3335,0,-3.3428,-3.343,-3.3431,-3.3387,-3.3385,-3.3382,-3.338,-3.3476,-3.348,-3.3485,0,0,0,0,0,0,0,0,0,0,0,0,0,-3.3112,-3.3116,-3.3333,-3.3335,-3.3336,-3.3428,-3.343,-3.3431,-3.3387,-3.3384,-3.3382,-3.3379,-3.3474,-3.348,-3.3485,0,0,0,0,0,0,0,0,0,0,0,0,0,-3.3208,-3.3118,-3.3333,-3.3325,-3.3326,-3.3428,-3.343,-3.3431,-3.3388,-3.3384,-3.3381,-3.3378,-3.3472,-3.3479,-3.3486,-3.3602,0,0,-3.3508,-3.3511,0,0,0,0,0,0,0,0,-3.3202,-3.3216,-3.3325,-3.3326,-3.3327,-3.3392,-3.3386,-3.3488,-3.3389,-3.3364,-3.338,-3.3376,-3.3451,-3.3459,-3.3485,-3.3606,-3.361,-3.3509,-3.3513,-3.3516,-3.3518,0,0,0,0,0,0,0,-3.3196,-3.3211,-3.3371,-3.3327,-3.3328,-3.3316,-3.3326,-3.3406,-3.3426,-3.3366,-3.3363,-3.3375,-3.345,-3.3478,-3.3487,-3.3612,-3.3508,-3.3515,-3.3519,-3.3522,-3.383,-3.3833,0,0,0,0,0,0,-3.319,-3.3206,-3.3368,-3.3374,-3.3254,-3.3323,-3.3334,-3.3375,-3.3425,-3.343,-3.3378,-3.3373,-3.3468,-3.3479,-3.349,-3.3627,-3.3516,-3.3523,-3.3527,-3.3826,-3.3831,-3.3835,0,0,0,0,0,0,-3.3185,-3.3204,-3.3364,-3.3289,-3.3309,-3.3331,-3.3377,-3.3378,-3.3406,-3.3434,-3.3437,-3.3403,-3.3465,-3.348,-3.3574,-3.363,-3.3526,-3.3532,-3.3821,-3.3827,-3.3833,-3.3903,0,0,0,0,0,0,-3.3179,-3.3203,-3.3248,-3.3291,-3.3313,-3.3447,-3.338,-3.3383,-3.3419,-3.3413,-3.3458,-3.3463,-3.3464,-3.3563,-3.3581,-3.3638,-3.3538,-3.3816,-3.3824,-3.3831,-3.3895,-3.391,-3.3923,0,0,0,0,0,-3.3171,-3.3264,-3.325,-3.327,-3.337,-3.3451,-3.3463,-3.3463,-3.3424,-3.3468,-3.3486,-3.3461,-3.3621,-3.3573,-3.3593,-3.3652,-3.3813,-3.3822,-3.383,-3.3889,-3.3907,-3.3923,0,0,0,0,0,0,-3.3227,-3.3269,-3.3255,-3.3365,-3.3404,-3.3443,-3.35,-3.3483,-3.3534,-3.3526,-3.3523,-3.3534,-3.3631,-3.3651,-3.3597,-3.3766,-3.3711,-3.3724,-3.3749,-3.3766,-3.378,-3.3772,-3.3544,0,0,0,0,0,-3.3252,-3.3315,-3.3349,-3.3442,-3.3463,-3.3478,-3.3513,-3.351,-3.355,-3.3567,-3.3592,-3.3632,-3.369,-3.373,-3.3786,-3.3898,-3.3907,-3.3949,-3.3962,-3.3973,-3.3985,-3.4044,-3.4062,-3.3863,-3.3863,-3.3863,0,0,-3.3305,-3.3336,-3.3376,-3.3454,-3.3485,-3.3549,-3.3492,-3.3563,-3.3611,-3.3578,-3.3667,-3.3687,-3.3731,-3.3834,-3.3881,-3.3854,-3.4041,-3.3985,-3.3993,-3.3998,-3.4055,-3.4074,-3.409,-3.3869,-3.3868,-3.3867,0,0,-3.3433,-3.3464,-3.3544,-3.3575,-3.3622,-3.3631,-3.3651,-3.3692,-3.3703,-3.3794,-3.377,-3.3825,-3.3928,-3.396,-3.3989,-3.4128,-3.4107,-3.4147,-3.4218,-3.4276,-3.4291,-3.4305,-3.4353,-3.4371,-3.4158,-3.4158,-3.4158,0,-3.3493,-3.3589,-3.3588,-3.366,-3.3694,-3.3667,-3.3748,-3.3778,-3.3841,-3.3865,-3.3834,-3.396,-3.3989,-3.4098,-3.4132,-3.4157,-3.4178,-3.4141,-3.4289,-3.4303,-3.4316,-3.4362,-3.438,-3.4162,-3.4162,-3.4161,-3.4161,0,-3.3659,-3.3726,-3.3786,-3.3846,-3.3887,-3.3964,-3.3972,-3.4014,-3.4006,-3.4018,-3.4109,-3.4142,-3.4203,-3.4229,-3.4223,-3.4338,-3.4319,-3.4289,-3.4234,-3.4339,-3.4382,-3.44,-3.4169,-3.4167,-3.4166,-3.4165,0,0,-3.3826,-3.3884,-3.3906,-3.3932,-3.3981,-3.4033,-3.4107,-3.4167,-3.4202,-3.4246,-3.4307,-3.4393,-3.4365,-3.4399,-3.4395,-3.4446,-3.4552,-3.441,-3.441,-3.4434,-3.4679,-3.4701,-3.4721,-3.4538,-3.4542,-3.4544,-3.4675,0,-3.3957,-3.4088,-3.4088,-3.4208,-3.4269,-3.4243,-3.4307,-3.4344,-3.4357,-3.441,-3.4423,-3.4484,-3.4443,-3.4463,-3.4512,-3.4529,-3.4601,-3.452,-3.4594,-3.4597,-3.4583,-3.4744,-3.4768,-3.4889,-3.4692,-3.4695,-3.4697,0,-3.4128,-3.4177,-3.4303,-3.4341,-3.4367,-3.4425,-3.4479,-3.453,-3.457,-3.4576,-3.4613,-3.4601,-3.4675,-3.4618,-3.4719,-3.4663,-3.4694,-3.4706,-3.4711,-3.4717,-3.4653,-3.4754,-3.4928,-3.4946,-3.4723,-3.4721,-3.4719,0,-3.4236,-3.4333,-3.4421,-3.4444,-3.4491,-3.4532,-3.4554,-3.459,-3.4626,-3.4673,-3.4695,-3.4751,-3.4781,-3.4823,-3.4826,-3.4784,-3.4927,-3.4871,-3.4933,-3.4933,-3.4964,-3.4962,-3.5145,-3.4985,-3.4985,-3.4985,-3.4984,0,-3.4382,-3.446,-3.4469,-3.4523,-3.4609,-3.4607,-3.4692,-3.471,-3.4742,-3.4798,-3.4779,-3.4832,-3.4833,-3.4886,-3.4889,-3.4972,-3.4986,-3.4991,-3.4991,-3.4993,-3.4992,-3.5012,-3.5003,-3.4989,-3.4988,-3.4987,-3.4987,0,-3.4517,-3.4527,-3.462,-3.4657,-3.4667,-3.4729,-3.476,-3.481,-3.4821,-3.4892,-3.4908,-3.4925,-3.4987,-3.4994,-3.5066,-3.5068,-3.5167,-3.5158,-3.5153,-3.5152,-3.5213,-3.5207,-3.5415,-3.5442,-3.5265,-3.5267,-3.5268,0,-3.4609,-3.4668,-3.4711,-3.4747,-3.477,-3.4829,-3.4865,-3.4865,-3.4903,-3.4952,-3.4996,-3.5056,-3.5104,-3.5204,-3.5222,-3.5276,-3.5268,-3.5337,-3.5276,-3.5275,-3.5268,-3.5264,-3.5269,-3.5349,-3.5351,-3.5352,-3.5354,0,-3.4771,-3.4773,-3.4825,-3.488,-3.4923,-3.4966,-3.5006,-3.5036,-3.5041,-3.5085,-3.5147,-3.5185,-3.5258,-3.5317,-3.537,-3.5391,-3.5373,-3.5373,-3.539,-3.5392,-3.5386,-3.5389,-3.5185,-3.5368,-3.5366,-3.5365,-3.5365,-3.5364,-3.4887,-3.4938,-3.4975,-3.5034,-3.5064,-3.5101,-3.515,-3.5167,-3.5219,-3.5279,-3.5275,-3.5344,-3.5381,-3.5451,-3.5476,-3.5529,-3.5506,-3.5531,-3.5537,-3.5543,-3.5549,-3.5378,-3.5539,-3.5538,-3.5538,-3.5538,-3.5537,0,-3.5047,-3.507,-3.5124,-3.518,-3.5226,-3.5205,-3.5248,-3.5287,-3.5348,-3.5384,-3.5431,-3.5503,-3.556,-3.5582,-3.5637,-3.5675,-3.5668,-3.569,-3.5687,-3.5691,-3.5567,-3.5546,-3.5694,-3.5694,-3.5694,-3.5694,-3.5694,-3.5694,-3.5136,-3.522,-3.5226,-3.5324,-3.5346,-3.5413,-3.5439,-3.5473,-3.5502,-3.5582,-3.5629,-3.5643,-3.5673,-3.573,-3.5781,-3.5786,-3.5807,-3.5832,-3.5833,-3.5716,-3.57,-3.5685,-3.5666,-3.5837,-3.5837,-3.5953,-3.5954,-3.5955]}]]